Temperature
17 17 18 17 18 17 18 17 17 17 17 17 17 17 17 17 17 17 17 17 17 17 17 17 17 17 17 17 18 18 18 18 18 18 18 18 18 18 18 18 18 17 18
17 17 17 17 17 17 17 17 17 17 17 17 17 17 17 17 17 17 17 17 17 17 17 17 17 17 17 17 17 17 17 18 18 18 18 18 18 18 18 18 18 17 17
17 17 17 17 17 17 17 17 17 17 17 17 17 17 17 17 17 17 17 17 17 17 17 17 17 17 17 17 17 17 17 18 18 18 17 17 17 17 18 18 18 18 17
17 17 17 17 17 17 17 17 17 17 17 17 17 17 17 17 17 17 17 17 17 17 17 17 17 17 17 17 17 17 17 17 17 17 17 17 17 17 17 17 17 17 17
16 16 17 17 17 17 17 17 17 17 17 17 17 17 17 17 17 17 17 17 17 17 17 17 17 17 17 17 17 17 17 17 17 17 17 17 17 17 17 17 17 17 17
16 16 16 17 17 17 17 17 17 17 17 17 16 16 17 17 17 17 17 17 17 17 17 17 17 17 17 17 17 17 17 17 17 16 16 16 16 17 17 17 17 17 17
16 16 16 17 17 17 17 16 16 17 16 16 16 16 16 16 17 17 17 17 17 17 17 17 17 17 17 17 17 17 17 17 16 16 16 16 16 17 16 17 17 17 17
16 16 16 17 17 17 17 16 17 17 16 16 16 16 16 16 16 16 16 16 16 16 16 16 16 16 16 16 17 17 17 16 16 16 16 16 16 16 16 16 16 16 16
16 16 16 16 16 16 16 16 16 17 16 16 16 16 16 16 16 16 16 16 16 16 16 16 16 16 16 16 16 16 16 16 16 16 16 16 16 16 16 16 16 16 16
16 16 16 16 16 16 16 16 16 16 16 16 16 16 16 16 16 16 16 16 16 16 16 16 16 16 16 16 16 16 16 16 16 16 16 16 16 16 16 16 16 16 16
16 16 16 16 16 16 16 16 16 16 16 16 16 16 16 16 16 16 16 16 16 16 16 16 16 16 16 16 16 16 16 16 15 15 15 16 16 16 16 16 16 16 16
16 16 16 16 16 16 16 16 16 16 16 16 16 16 16 16 16 16 16 16 16 16 16 16 16 16 16 16 16 16 15 15 15 15 15 15 15 15 15 16 15 15 15
16 16 16 16 16 16 16 16 16 16 16 16 16 16 16 16 16 16 16 15 15 15 15 15 15 15 15 15 15 15 15 15 15 15 15 15 15 15 15 15 15 15 15
16 16 16 16 16 16 16 16 16 16 16 16 16 16 16 16 16 16 16 15 15 15 15 15 15 15 15 15 15 15 15 15 15 15 15 15 15 15 15 15 15 15 15
16 16 16 16 16 16 16 16 16 16 16 16 16 16 16 16 16 16 15 15 15 15 15 15 15 15 15 15 15 15 15 15 15 15 15 15 15 15 15 15 15 15 15
17 16 16 16 16 16 16 16 16 16 15 16 15 15 15 15 15 15 15 15 15 15 15 15 15 15 15 15 15 15 15 15 15 14 14 14 15 15 15 15 15 15 15
17 16 16 16 16 16 16 16 15 15 15 15 15 15 15 15 15 15 15 15 15 15 15 15 15 14 14 14 14 14 14 14 14 14 14 14 14 14 15 15 15 15 15
17 16 16 16 16 16 15 15 15 15 15 15 15 15 15 15 15 15 15 15 14 14 14 14 14 14 14 14 14 14 14 14 14 14 14 14 14 14 14 14 14 15 15
17 16 16 16 16 16 15 15 15 15 15 15 15 15 15 15 15 15 14 14 14 14 14 14 14 14 14 14 14 14 14 14 14 14 14 14 14 14 14 14 14 14 14
17 16 16 16 16 15 15 15 15 15 15 15 14 14 14 14 14 14 14 14 14 14 14 14 13 13 13 13 14 14 14 14 14 14 14 14 14 14 14 14 14 14 14
16 16 16 16 16 15 15 15 15 15 14 14 14 14 14 14 14 14 14 14 14 13 13 13 13 13 13 13 13 13 14 14 14 13 13 13 14 13 14 14 13 13 13
16 16 16 16 16 15 15 15 15 15 14 14 14 14 14 14 14 14 14 13 13 13 13 13 13 13 13 13 13 14 14 14 13 13 13 13 13 13 13 13 13 13 13
16 16 16 16 15 15 15 15 15 14 14 14 14 14 14 14 14 14 13 13 13 13 13 13 13 13 13 13 13 13 14 14 13 13 13 13 13 13 13 13 13 13 13
16 16 16 15 15 15 15 15 14 14 14 14 14 13 13 13 13 13 13 13 13 13 13 13 12 12 12 12 12 13 13 13 13 14 13 13 13 13 13 13 13 13 13
16 16 15 15 15 15 15 15 14 14 14 14 13 13 13 13 13 13 13 13 13 13 12 12 12 12 12 12 12 12 12 12 13 13 13 13 13 12 12 13 13 13 13
16 15 15 15 15 15 14 14 14 14 13 13 13 13 13 13 13 13 13 13 12 12 12 12 12 12 12 12 12 12 12 12 12 13 13 13 13 12 12 12 12 13 13
Wind_Speed
1 3 4 3 5 6 6 7 7 8 8 9 9 9 9 8 8 8 8 9 9 9 8 9 8 7 7 7 7 7 6 5 5 5 5 4 4 4 5 3 2 4 6
2 3 5 4 6 7 7 8 8 8 8 8 9 9 8 8 8 8 9 9 9 9 9 9 9 9 8 7 7 7 7 6 5 5 3 4 5 5 4 3 1 3 5
3 4 5 6 6 7 7 8 8 8 8 8 8 8 8 8 8 9 9 9 9 10 10 9 9 9 9 8 8 7 7 7 6 4 1 3 6 6 4 3 3 3 4
4 5 6 7 7 7 7 7 8 8 8 8 7 8 8 8 9 8 9 9 9 9 9 9 10 9 9 8 8 7 7 6 5 2 2 4 4 7 4 3 3 3 3
6 6 8 7 7 7 7 7 7 7 7 7 7 8 8 9 8 7 8 8 9 9 9 9 9 9 9 8 8 7 7 6 4 3 5 5 5 7 5 4 4 4 3
6 6 9 8 7 7 7 7 7 7 7 7 8 8 8 8 8 8 8 8 8 8 8 9 9 9 9 8 8 7 7 5 3 5 5 5 5 8 6 6 5 4 4
6 6 8 8 8 8 7 8 8 7 7 7 8 8 8 8 9 9 9 9 9 9 8 9 9 9 9 9 8 8 7 5 4 5 5 5 7 8 6 6 6 6 5
6 6 7 8 7 8 8 7 7 7 7 7 7 8 8 8 8 9 9 10 9 9 9 9 9 9 9 9 8 8 8 5 5 5 5 6 8 7 6 6 6 6 6
6 5 5 6 7 7 8 8 8 7 7 7 8 8 8 8 8 9 9 9 9 9 9 9 9 9 9 9 9 8 7 5 5 5 5 6 7 6 6 6 6 6 6
5 5 5 5 5 6 8 9 8 8 8 8 7 8 7 7 8 7 8 9 9 9 9 9 9 9 9 9 9 7 4 2 5 5 5 7 7 6 6 6 6 7 7
5 4 4 5 5 5 6 7 7 8 7 6 6 6 4 5 6 6 9 9 8 8 9 9 8 8 7 9 8 6 3 5 6 6 7 10 8 8 8 8 7 7 8
5 4 4 4 4 5 5 5 5 5 5 5 5 5 5 5 6 6 8 7 7 7 7 7 6 4 3 6 6 3 5 7 6 7 9 11 9 9 8 8 8 8 8
5 5 4 4 4 4 4 4 4 4 4 4 5 5 4 4 4 4 4 5 5 4 5 5 4 5 6 6 5 6 7 6 6 7 9 11 10 9 9 8 8 8 8
5 5 4 4 4 4 4 4 3 3 3 3 4 4 4 3 3 4 3 4 3 3 4 4 4 5 5 6 6 6 6 6 6 6 9 11 10 9 9 8 7 7 8
5 5 5 4 4 4 4 3 3 3 3 4 3 3 4 3 3 3 3 3 3 3 3 3 3 4 5 5 5 6 6 6 6 5 6 10 10 9 8 8 7 8 8
5 5 5 4 4 3 3 3 3 3 3 3 3 3 4 3 3 3 3 3 3 3 3 3 3 3 3 4 4 5 5 5 5 5 5 6 9 10 9 8 7 8 8
5 5 5 4 4 3 3 2 3 3 3 3 3 3 4 4 3 3 3 3 3 3 2 3 3 3 2 2 3 3 4 4 4 4 5 5 5 8 9 8 7 7 7
5 5 5 4 4 3 3 2 2 3 3 2 3 3 3 4 4 3 2 3 3 2 2 2 2 2 2 2 2 2 2 3 2 3 4 4 4 4 7 8 7 7 7
6 6 6 5 4 4 3 3 2 2 2 2 2 2 2 3 3 3 2 2 2 1 1 2 2 2 2 2 2 2 2 2 2 2 3 3 4 4 5 7 7 7 7
6 5 6 5 5 4 3 3 3 2 2 2 2 1 2 2 2 2 1 1 1 1 1 1 2 1 1 1 1 1 2 1 1 2 2 3 3 4 5 5 4 6 7
7 7 6 6 6 5 3 3 3 2 2 2 1 1 1 1 1 1 1 1 1 1 1 1 1 1 1 1 0 0 1 1 1 1 1 1 2 3 3 3 3 3 4
7 7 7 7 6 5 4 3 3 2 2 1 1 1 1 1 1 1 1 0 0 0 0 0 0 0 1 1 1 1 1 1 1 0 0 1 1 2 2 2 2 2 2
8 7 6 7 7 5 5 3 3 2 2 2 2 1 1 1 0 0 1 0 0 0 1 1 1 1 1 1 2 1 1 1 0 1 0 0 0 1 0 1 1 1 1
8 7 7 6 6 6 6 5 5 4 3 3 2 2 2 2 1 1 1 1 1 1 1 2 1 2 2 1 1 1 2 2 2 1 1 1 1 1 1 1 0 0 0
8 7 6 6 6 5 5 5 5 4 3 3 2 2 2 1 1 1 1 2 2 1 2 2 2 2 3 3 2 2 2 2 4 2 1 1 1 1 1 1 1 1 0
7 7 6 6 6 5 5 5 6 5 4 3 3 2 2 2 2 1 2 2 2 2 2 3 3 3 3 3 3 2 2 2 2 2 3 3 2 2 2 1 1 1 0
Wind_Direction
69 74 78 73 83 81 80 79 82 83 83 85 88 88 83 82 83 83 85 81 78 74 72 70 74 75 76 75 76 80 78 77 78 78 78 76 89 96 95 95 151 138 108
78 90 97 91 88 85 84 80 82 83 82 83 87 87 85 83 85 86 84 80 78 73 69 68 68 67 70 74 74 73 72 71 71 75 78 95 104 100 97 95 49 93 114
85 93 109 98 91 87 86 81 81 83 82 82 84 85 85 84 82 83 81 78 75 72 69 66 64 63 63 66 69 69 65 63 63 64 68 83 102 100 95 102 100 109 127
87 88 91 95 94 90 86 81 77 80 82 83 82 83 83 82 79 77 77 76 76 72 69 66 64 61 59 61 66 67 65 62 56 32 65 63 74 90 90 94 94 103 118
89 85 86 89 93 91 87 83 78 81 81 81 81 80 80 78 78 77 76 77 76 73 69 66 65 62 58 58 62 63 67 65 63 50 55 56 60 76 81 85 85 87 96
93 86 86 81 85 87 85 86 81 81 80 78 77 79 78 76 74 74 73 73 74 73 71 67 65 62 59 58 60 59 60 57 60 63 58 57 64 70 67 71 70 71 78
98 92 91 83 81 82 83 84 78 77 76 76 74 75 75 74 73 71 69 69 69 69 71 69 67 65 61 62 63 61 58 46 54 64 67 65 65 65 61 63 65 69 74
97 97 96 93 84 79 76 77 75 74 73 77 77 74 73 72 73 70 67 66 65 65 68 69 68 67 64 64 66 63 53 24 67 66 68 68 68 67 65 67 68 68 74
96 96 93 100 102 95 79 71 69 72 74 75 79 76 74 71 74 73 71 66 64 63 64 67 68 68 65 64 66 64 58 32 50 59 64 64 70 71 70 68 69 68 70
105 101 93 92 93 98 97 79 68 70 74 75 77 76 79 89 86 80 81 70 64 63 64 67 66 68 66 66 67 65 55 45 55 56 52 63 63 65 73 75 73 73 72
114 109 101 97 92 88 87 88 86 85 82 92 94 90 94 89 86 86 69 69 70 71 70 68 67 68 74 81 71 57 43 52 58 52 52 55 59 64 70 74 77 79 80
127 117 112 106 100 94 88 89 82 81 81 81 81 85 80 77 73 76 86 78 79 82 86 78 80 93 74 76 84 78 57 54 54 56 56 52 55 61 67 69 81 83 82
131 119 116 116 109 102 97 86 77 75 76 79 78 83 80 80 81 76 86 98 92 95 85 92 96 67 63 63 58 61 53 48 50 52 54 49 50 57 62 68 78 83 83
137 132 127 124 119 113 105 91 86 84 77 76 78 80 83 75 72 69 66 67 70 70 66 67 63 68 66 68 64 61 60 53 50 55 57 48 46 53 59 63 72 79 82
147 147 140 137 128 120 109 101 102 90 80 79 68 68 71 67 70 74 72 67 67 71 76 68 68 68 61 57 54 54 56 55 50 54 66 56 45 46 51 60 69 76 79
160 155 147 151 139 130 122 123 106 96 94 75 66 58 61 68 63 65 68 71 66 67 65 69 71 71 60 54 52 52 52 53 48 48 55 69 62 49 47 58 70 75 81
167 158 153 153 146 140 125 114 103 104 96 84 74 62 66 62 59 57 56 66 67 69 68 61 67 65 63 56 55 51 51 46 40 41 51 47 62 64 53 54 65 74 80
173 165 157 158 161 147 141 129 119 115 102 92 80 58 62 64 64 64 58 58 55 58 57 56 51 58 59 47 44 43 52 53 42 37 44 48 45 52 65 60 64 72 79
178 175 170 172 169 159 151 139 124 121 118 102 90 72 61 66 67 73 58 50 56 55 62 59 50 46 47 43 44 38 35 36 40 45 42 44 50 50 55 73 81 73 78
181 179 177 174 173 163 160 154 145 139 133 123 102 91 73 61 64 73 76 62 60 66 68 78 73 58 46 46 42 42 32 24 29 35 39 45 42 43 43 47 73 89 85
185 186 184 185 178 175 173 171 170 164 154 139 120 97 93 72 61 67 61 62 48 72 71 94 83 86 45 6 275 75 120 72 39 43 36 39 51 42 41 50 50 64 98
190 193 190 192 184 180 182 182 179 170 176 152 148 132 113 79 59 48 43 66 111 109 152 91 36 313 15 322 310 278 231 187 109 65 24 20 27 53 36 43 61 69 78
193 193 193 193 185 179 177 178 169 165 183 180 184 194 213 219 180 69 18 329 277 210 236 248 219 238 276 294 316 309 292 286 268 160 318 279 360 5 351 24 54 60 91
195 195 194 187 183 181 179 184 187 191 195 202 192 195 210 219 223 233 263 263 252 250 251 254 250 256 264 274 284 303 305 319 274 238 214 254 301 307 307 297 347 358 100
190 191 194 185 181 181 187 181 195 198 197 192 190 193 202 205 228 237 259 256 255 256 262 264 264 259 255 268 273 260 258 272 268 270 254 262 245 241 258 282 291 316 278
181 184 187 186 183 183 187 189 197 197 200 199 198 202 206 201 219 237 260 253 256 258 260 261 258 255 262 264 266 258 252 249 258 257 261 254 255 253 236 223 250 266 255
Height
1529 1528 1527 1527 1526 1526 1526 1525 1525 1526 1525 1525 1525 1525 1525 1525 1525 1525 1525 1525 1525 1525 1525 1524 1524 1524 1524 1524 1524 1523 1523 1522 1522 1522 1521 1520 1519 1520 1521 1522 1523 1524 1523
1530 1529 1527 1527 1527 1527 1527 1526 1527 1527 1527 1526 1526 1526 1526 1526 1526 1526 1526 1526 1526 1526 1526 1525 1525 1525 1525 1524 1524 1524 1524 1523 1523 1522 1521 1519 1518 1520 1521 1522 1523 1524 1523
1530 1529 1528 1528 1528 1528 1528 1528 1528 1528 1528 1528 1527 1528 1528 1528 1527 1527 1527 1527 1527 1527 1527 1526 1526 1526 1526 1525 1525 1525 1524 1524 1524 1523 1523 1522 1520 1521 1522 1523 1523 1524 1524
1531 1530 1530 1529 1529 1529 1529 1529 1529 1529 1529 1529 1529 1529 1529 1529 1529 1529 1529 1529 1528 1528 1528 1528 1527 1527 1527 1526 1526 1526 1525 1525 1524 1524 1525 1524 1524 1522 1523 1523 1523 1524 1524
1532 1531 1531 1530 1530 1530 1530 1530 1530 1530 1530 1530 1530 1530 1530 1530 1530 1530 1530 1530 1530 1529 1529 1529 1528 1528 1527 1527 1527 1526 1526 1525 1525 1525 1525 1525 1524 1523 1523 1524 1524 1524 1524
1533 1532 1532 1531 1531 1531 1531 1531 1531 1531 1531 1531 1531 1531 1531 1531 1531 1531 1531 1531 1531 1530 1530 1530 1529 1529 1528 1528 1527 1527 1527 1526 1527 1527 1526 1526 1525 1524 1524 1524 1524 1525 1525
1534 1533 1533 1532 1532 1532 1532 1532 1532 1532 1532 1532 1532 1532 1532 1532 1532 1532 1532 1532 1532 1531 1531 1531 1530 1530 1529 1529 1528 1528 1527 1527 1528 1528 1527 1527 1526 1525 1525 1525 1525 1525 1525
1535 1535 1534 1533 1533 1533 1533 1533 1533 1533 1533 1533 1533 1534 1533 1533 1533 1533 1533 1533 1533 1532 1532 1532 1531 1531 1530 1530 1529 1529 1528 1528 1529 1529 1528 1528 1527 1526 1526 1526 1525 1525 1525
1536 1536 1536 1536 1535 1535 1534 1535 1535 1535 1535 1535 1535 1535 1535 1534 1534 1534 1534 1534 1534 1534 1533 1533 1532 1532 1531 1531 1530 1530 1529 1529 1530 1530 1530 1529 1528 1527 1527 1526 1526 1526 1525
1537 1537 1537 1537 1537 1537 1537 1536 1536 1536 1536 1536 1536 1536 1536 1536 1536 1536 1536 1535 1535 1535 1534 1534 1533 1533 1532 1532 1531 1531 1530 1531 1531 1531 1531 1530 1528 1528 1527 1527 1526 1526 1526
1537 1537 1538 1538 1538 1538 1538 1537 1537 1537 1537 1537 1537 1537 1537 1538 1538 1537 1537 1536 1536 1535 1535 1535 1534 1534 1533 1533 1532 1532 1532 1532 1532 1532 1531 1530 1529 1528 1528 1527 1527 1526 1526
1538 1538 1538 1539 1539 1539 1539 1539 1539 1539 1539 1539 1539 1539 1539 1539 1539 1538 1537 1537 1537 1536 1536 1536 1535 1535 1535 1535 1534 1533 1534 1533 1533 1533 1531 1530 1530 1529 1528 1528 1527 1527 1527
1539 1539 1539 1539 1540 1540 1540 1540 1540 1540 1540 1540 1540 1540 1539 1539 1539 1539 1539 1538 1538 1538 1538 1537 1537 1537 1536 1535 1535 1535 1534 1534 1534 1533 1532 1531 1531 1530 1529 1529 1529 1528 1528
1539 1539 1539 1540 1540 1541 1541 1541 1541 1541 1541 1541 1541 1541 1540 1540 1540 1540 1540 1539 1539 1539 1538 1538 1538 1538 1537 1537 1536 1536 1535 1535 1534 1534 1533 1532 1531 1531 1530 1530 1529 1529 1528
1539 1539 1540 1540 1541 1541 1541 1541 1542 1542 1542 1542 1541 1541 1541 1541 1541 1540 1540 1539 1539 1539 1539 1538 1538 1538 1538 1537 1537 1536 1536 1535 1535 1535 1534 1532 1532 1531 1531 1530 1530 1530 1529
1539 1539 1540 1540 1541 1541 1542 1542 1542 1542 1542 1542 1542 1542 1541 1541 1541 1541 1541 1540 1540 1539 1539 1539 1539 1538 1538 1537 1537 1537 1536 1536 1535 1535 1534 1533 1532 1532 1531 1531 1531 1530 1530
1538 1539 1540 1540 1541 1541 1542 1542 1542 1542 1542 1542 1542 1542 1542 1541 1541 1541 1541 1540 1540 1540 1539 1539 1539 1539 1538 1538 1537 1537 1536 1536 1536 1535 1534 1534 1533 1532 1532 1531 1531 1531 1531
1538 1539 1539 1540 1541 1541 1541 1542 1542 1542 1542 1542 1542 1542 1542 1542 1541 1541 1540 1540 1540 1539 1539 1539 1539 1539 1538 1538 1538 1537 1536 1536 1535 1535 1535 1534 1534 1533 1532 1532 1532 1531 1531
1537 1538 1539 1539 1540 1541 1541 1541 1541 1542 1541 1542 1542 1542 1542 1542 1541 1541 1540 1540 1540 1539 1539 1539 1539 1539 1538 1538 1537 1537 1536 1536 1536 1535 1535 1535 1535 1534 1534 1533 1532 1532 1532
1536 1537 1538 1539 1539 1540 1540 1541 1541 1541 1541 1541 1541 1541 1541 1541 1541 1541 1540 1540 1540 1539 1539 1539 1538 1538 1538 1538 1537 1537 1536 1536 1536 1535 1535 1535 1535 1534 1534 1533 1533 1533 1533
1534 1535 1536 1537 1538 1539 1539 1540 1540 1541 1541 1541 1541 1541 1541 1541 1541 1540 1540 1540 1539 1539 1539 1538 1538 1538 1538 1538 1538 1537 1537 1536 1536 1535 1536 1535 1535 1534 1534 1534 1534 1534 1534
1532 1533 1535 1536 1537 1538 1538 1539 1540 1540 1540 1540 1540 1540 1540 1540 1540 1540 1540 1539 1538 1538 1538 1538 1537 1538 1538 1537 1538 1537 1537 1538 1536 1535 1535 1535 1535 1534 1534 1534 1534 1534 1534
1530 1531 1533 1534 1536 1536 1537 1538 1538 1539 1539 1540 1539 1539 1539 1539 1539 1539 1539 1539 1538 1538 1538 1537 1537 1537 1537 1537 1537 1538 1537 1536 1536 1536 1535 1534 1534 1534 1534 1534 1534 1534 1534
1527 1529 1531 1532 1534 1535 1535 1536 1537 1537 1538 1538 1539 1539 1539 1539 1539 1538 1538 1538 1537 1537 1537 1537 1536 1536 1536 1536 1536 1536 1536 1536 1536 1535 1535 1534 1533 1533 1533 1533 1533 1533 1533
1525 1527 1529 1531 1532 1533 1534 1534 1535 1536 1537 1537 1537 1538 1538 1538 1537 1537 1537 1537 1536 1536 1536 1535 1535 1535 1535 1535 1535 1535 1534 1534 1534 1534 1533 1533 1533 1532 1532 1532 1532 1532 1532
1523 1525 1526 1528 1529 1531 1531 1532 1533 1534 1535 1536 1536 1536 1536 1536 1536 1536 1536 1535 1535 1535 1534 1534 1534 1533 1533 1533 1533 1533 1533 1533 1533 1533 1532 1532 1531 1531 1531 1530 1530 1530 1530